| time (UTC) | temp F | wind direction | speed knots | gust knots | rain 1hr in | rain 24hr in | rain mn in | humidity % | barometer mb |
| 20260502163208 | 71 | 26 | 1.7 | 5.2 | 0.00 | 1.62 | 0.00 | 67 | 1018.7 |
| 20260502162702 | 71 | 71 | 1.7 | 5.2 | 0.00 | 1.81 | 0.00 | 68 | 1018.7 |
| 20260502162156 | 70 | 53 | 1.7 | 6.1 | 0.00 | 1.85 | 0.00 | 68 | 1018.6 |
| 20260502161926 | 70 | 28 | 1.7 | 5.2 | 0.00 | 1.85 | 0.00 | 69 | 1018.8 |
| 20260502161156 | 70 | 343 | 1.7 | 5.2 | 0.00 | 1.85 | 0.00 | 70 | 1018.7 |
| 20260502160654 | 70 | 94 | 1.7 | 5.2 | 0.00 | 1.85 | 0.00 | 70 | 1018.7 |
| 20260502160152 | 70 | 30 | 1.7 | 5.2 | 0.00 | 1.85 | 0.00 | 72 | 1018.7 |
| 20260502152148 | 67 | 51 | 1.7 | 7.8 | 0.00 | 1.85 | 0.00 | 76 | 1018.6 |
| 20260502151648 | 67 | 95 | 1.7 | 7.8 | 0.00 | 1.85 | 0.00 | 77 | 1018.7 |
| 20260502151146 | 66 | 53 | 1.7 | 5.2 | 0.00 | 1.85 | 0.00 | 77 | 1018.7 |
| 20260502150646 | 66 | 355 | 1.7 | 5.2 | 0.00 | 1.85 | 0.00 | 78 | 1018.7 |
| 20260502150144 | 66 | 62 | 0.9 | 5.2 | 0.00 | 1.85 | 0.00 | 79 | 1018.7 |
| 20260502130452 | 57 | 36 | 0.9 | 3.5 | 0.00 | 1.89 | 0.00 | 91 | 1017.4 |
| 20260502123419 | 56 | 38 | 0.0 | 2.6 | 0.00 | 1.89 | 0.00 | 91 | 1016.9 |
| 20260502122918 | 55 | 36 | 0.9 | 1.7 | 0.00 | 1.89 | 0.00 | 91 | 1016.8 |
| 20260502122416 | 55 | 36 | 0.9 | 2.6 | 0.00 | 1.89 | 0.00 | 91 | 1016.6 |
| 20260502121910 | 55 | 18 | 0.9 | 3.5 | 0.00 | 1.89 | 0.00 | 91 | 1016.6 |
| 20260502121617 | 55 | 42 | 0.9 | 3.5 | 0.00 | 1.90 | 0.00 | 92 | 1016.6 |
| 20260502120847 | 55 | 13 | 0.0 | 1.7 | 0.00 | 1.90 | 0.00 | 92 | 1016.5 |
| 20260502120347 | 55 | 13 | 0.0 | 3.5 | 0.00 | 1.90 | 0.00 | 91 | 1016.5 |
| 20260502115846 | 55 | 13 | 0.9 | 3.5 | 0.00 | 1.90 | 0.00 | 92 | 1016.4 |
| 20260502115556 | 55 | 48 | 0.9 | 1.7 | 0.00 | 1.91 | 0.00 | 92 | 1016.4 |
| 20260502114812 | 55 | 48 | 0.9 | 2.6 | 0.00 | 1.92 | 0.00 | 92 | 1016.3 |
| 20260502114534 | 55 | 49 | 0.9 | 2.6 | 0.00 | 1.92 | 0.00 | 92 | 1016.3 |
| 20260502113802 | 55 | 51 | 0.9 | 2.6 | 0.00 | 1.92 | 0.00 | 91 | 1016.2 |
| 20260502113516 | 55 | 51 | 0.9 | 1.7 | 0.00 | 1.92 | 0.00 | 91 | 1016.1 |
| 20260502112754 | 55 | 51 | 0.9 | 1.7 | 0.00 | 1.92 | 0.00 | 91 | 1015.9 |
| 20260502112254 | 55 | 51 | 0.0 | 1.7 | 0.00 | 1.92 | 0.00 | 91 | 1015.8 |
| 20260502112012 | 55 | 51 | 0.0 | 1.7 | 0.00 | 1.92 | 0.00 | 91 | 1015.9 |
| 20260502111249 | 55 | 51 | 0.0 | 1.7 | 0.00 | 1.92 | 0.00 | 91 | 1015.9 |
| 20260502110727 | 55 | 51 | 0.0 | 1.7 | 0.00 | 1.92 | 0.00 | 91 | 1016.0 |
| 20260502110224 | 55 | 51 | 0.0 | 1.7 | 0.00 | 1.92 | 0.00 | 91 | 1016.0 |
| 20260502105716 | 55 | 51 | 0.0 | 1.7 | 0.00 | 1.92 | 0.00 | 91 | 1015.9 |
| 20260502105214 | 55 | 51 | 0.0 | 1.7 | 0.00 | 1.92 | 0.00 | 91 | 1015.9 |
| 20260502104712 | 55 | 51 | 0.0 | 1.7 | 0.00 | 1.92 | 0.00 | 91 | 1015.8 |
| 20260502104156 | 55 | 51 | 0.0 | 1.7 | 0.00 | 1.92 | 0.00 | 91 | 1015.8 |
| 20260502103654 | 55 | 51 | 0.0 | 0.9 | 0.00 | 1.92 | 0.00 | 91 | 1015.7 |
| 20260502103154 | 55 | 51 | 0.0 | 0.9 | 0.00 | 1.92 | 0.00 | 91 | 1015.4 |
| 20260502102638 | 55 | 51 | 0.0 | 0.9 | 0.00 | 1.92 | 0.00 | 91 | 1015.4 |
| 20260502102132 | 55 | 51 | 0.0 | 0.9 | 0.00 | 1.92 | 0.00 | 91 | 1015.2 |
| 20260502101626 | 55 | 51 | 0.0 | 0.9 | 0.00 | 1.92 | 0.00 | 91 | 1015.2 |
| 20260502101122 | 55 | 51 | 0.0 | 0.0 | 0.00 | 1.92 | 0.00 | 91 | 1015.1 |
| 20260502100603 | 55 | 51 | 0.0 | 0.9 | 0.00 | 1.92 | 0.00 | 91 | 1015.0 |
| 20260502091454 | 56 | 51 | 0.0 | 1.7 | 0.00 | 1.92 | 0.00 | 91 | 1014.3 |
| 20260502090938 | 56 | 51 | 0.0 | 2.6 | 0.00 | 1.92 | 0.00 | 91 | 1014.2 |
| 20260502090438 | 56 | 51 | 0.0 | 2.6 | 0.00 | 1.92 | 0.00 | 91 | 1014.1 |
| 20260502090201 | 56 | 51 | 0.0 | 2.6 | 0.00 | 1.92 | 0.00 | 91 | 1014.1 |
| 20260502071230 | 57 | 66 | 0.9 | 6.1 | 0.00 | 1.92 | 0.00 | 92 | 1014.2 |
| 20260502070715 | 57 | 67 | 1.7 | 6.1 | 0.00 | 1.92 | 0.00 | 92 | 1014.1 |
| 20260502070208 | 57 | 323 | 1.7 | 4.3 | 0.00 | 1.92 | 0.00 | 93 | 1014.1 |
| 20260502065702 | 58 | 21 | 0.9 | 3.5 | 0.00 | 1.92 | 0.00 | 93 | 1014.1 |
| 20260502065155 | 58 | 355 | 0.9 | 2.6 | 0.00 | 1.92 | 0.00 | 93 | 1014.0 |
| 20260502064910 | 58 | 355 | 0.9 | 5.2 | 0.00 | 1.92 | 0.00 | 93 | 1013.9 |
| 20260502064150 | 58 | 355 | 0.9 | 5.2 | 0.00 | 1.93 | 0.00 | 93 | 1013.8 |
| 20260502063638 | 58 | 72 | 0.9 | 4.3 | 0.00 | 1.93 | 0.00 | 93 | 1013.9 |
| 20260502063131 | 58 | 85 | 0.9 | 3.5 | 0.00 | 1.94 | 0.00 | 93 | 1013.8 |
| 20260502062626 | 58 | 85 | 0.9 | 3.5 | 0.00 | 1.94 | 0.00 | 93 | 1013.7 |
| 20260502062122 | 58 | 86 | 0.9 | 6.1 | 0.00 | 1.96 | 0.00 | 93 | 1013.7 |
| 20260502061837 | 58 | 86 | 0.9 | 6.1 | 0.00 | 1.96 | 0.00 | 93 | 1013.6 |
| 20260502061109 | 58 | 48 | 1.7 | 5.2 | 0.00 | 1.99 | 0.00 | 93 | 1013.6 |
| 20260502060602 | 58 | 48 | 1.7 | 9.6 | 0.00 | 2.00 | 0.00 | 93 | 1013.5 |
| 20260502060320 | 58 | 105 | 0.9 | 9.6 | 0.00 | 2.00 | 0.00 | 93 | 1013.5 |
| 20260502055558 | 58 | 63 | 0.9 | 3.5 | 0.00 | 2.02 | 0.00 | 93 | 1013.5 |
| 20260502055058 | 58 | 63 | 1.7 | 3.5 | 0.00 | 2.04 | 0.00 | 94 | 1013.3 |
| 20260502054556 | 58 | 80 | 0.9 | 6.1 | 0.00 | 2.08 | 0.00 | 94 | 1013.4 |
| 20260502054045 | 58 | 82 | 0.9 | 6.1 | 0.00 | 2.10 | 0.00 | 94 | 1013.5 |
| 20260502053545 | 58 | 29 | 0.9 | 5.2 | 0.00 | 2.10 | 0.00 | 94 | 1013.6 |
| 20260502053046 | 58 | 28 | 0.9 | 5.2 | 0.00 | 2.11 | 0.00 | 94 | 1013.6 |
| 20260502052544 | 58 | 65 | 0.9 | 3.5 | 0.00 | 2.11 | 0.00 | 94 | 1013.6 |
| 20260502052044 | 58 | 67 | 0.9 | 6.1 | 0.00 | 2.13 | 0.00 | 94 | 1013.7 |
| 20260502051544 | 58 | 67 | 0.9 | 6.1 | 0.00 | 2.24 | 0.00 | 94 | 1013.7 |
| 20260502051044 | 58 | 15 | 0.9 | 4.3 | 0.00 | 2.24 | 0.00 | 94 | 1013.9 |
| 20260502050541 | 58 | 286 | 1.7 | 3.5 | 0.00 | 2.24 | 0.00 | 94 | 1013.8 |
| 20260502050526 | 58 | 284 | 1.7 | 5.2 | 0.00 | 2.24 | 0.00 | 94 | 1013.6 |
| 20260502045540 | 58 | 295 | 1.7 | 5.2 | 0.00 | 2.24 | 2.24 | 94 | 1013.6 |
| 20260502045518 | 58 | 103 | 1.7 | 5.2 | 0.00 | 2.24 | 2.24 | 94 | 1013.4 |
| 20260502044540 | 58 | 103 | 1.7 | 7.8 | 0.00 | 2.24 | 2.24 | 94 | 1013.6 |
| 20260502044033 | 57 | 188 | 0.9 | 7.8 | 0.00 | 2.24 | 2.24 | 94 | 1013.7 |
| 20260502043801 | 57 | 31 | 0.9 | 5.2 | 0.00 | 2.24 | 2.24 | 94 | 1013.6 |
| 20260502043030 | 58 | 21 | 1.7 | 7.0 | 0.00 | 2.24 | 2.24 | 94 | 1013.6 |
| 20260502042526 | 57 | 43 | 1.7 | 7.0 | 0.01 | 2.24 | 2.24 | 94 | 1013.5 |
| 20260502042024 | 58 | 337 | 1.7 | 6.1 | 0.01 | 2.24 | 2.24 | 94 | 1013.6 |
| 20260502041524 | 58 | 329 | 1.7 | 6.1 | 0.02 | 2.24 | 2.24 | 94 | 1013.6 |
| 20260502041018 | 58 | 12 | 1.7 | 6.1 | 0.02 | 2.24 | 2.24 | 94 | 1013.6 |
| 20260502040512 | 58 | 17 | 2.6 | 5.2 | 0.02 | 2.24 | 2.24 | 94 | 1013.5 |
| 20260502040005 | 58 | 26 | 1.7 | 5.2 | 0.02 | 2.24 | 2.24 | 94 | 1013.6 |
| 20260502035459 | 58 | 336 | 1.7 | 4.3 | 0.02 | 2.24 | 2.24 | 95 | 1013.4 |
| 20260502034954 | 58 | 39 | 1.7 | 4.3 | 0.02 | 2.24 | 2.24 | 94 | 1013.4 |
| 20260502034447 | 58 | 37 | 1.7 | 5.2 | 0.02 | 2.24 | 2.24 | 95 | 1013.4 |
| 20260502033941 | 58 | 5 | 1.7 | 5.2 | 0.02 | 2.24 | 2.24 | 95 | 1013.0 |
| 20260502033436 | 58 | 355 | 0.9 | 3.5 | 0.03 | 2.24 | 2.24 | 95 | 1013.0 |
| 20260502032930 | 58 | 351 | 1.7 | 8.7 | 0.02 | 2.24 | 2.24 | 95 | 1012.8 |
| 20260502032906 | 58 | 331 | 1.7 | 8.7 | 0.02 | 2.25 | 2.23 | 95 | 1012.6 |
| 20260502031918 | 59 | 348 | 0.9 | 5.2 | 0.02 | 2.28 | 2.23 | 95 | 1012.3 |
| 20260502031634 | 59 | 321 | 1.7 | 5.2 | 0.01 | 2.27 | 2.22 | 95 | 1012.8 |
| 20260502030906 | 59 | 321 | 1.7 | 5.2 | 0.02 | 2.29 | 2.22 | 95 | 1012.3 |
| 20260502030623 | 59 | 355 | 1.7 | 6.1 | 0.02 | 2.31 | 2.22 | 95 | 1012.0 |
| 20260502025852 | 59 | 5 | 1.7 | 6.1 | 0.02 | 2.33 | 2.22 | 95 | 1011.9 |
| 20260502025352 | 59 | 47 | 0.9 | 4.3 | 0.02 | 2.33 | 2.22 | 95 | 1011.8 |
| 20260502025112 | 60 | 50 | 0.0 | 4.3 | 0.03 | 2.33 | 2.22 | 95 | 1011.6 |
| 20260502024344 | 59 | 50 | 0.9 | 4.3 | 0.04 | 2.33 | 2.22 | 95 | 1011.5 |
| 20260502023836 | 59 | 51 | 0.9 | 3.5 | 0.05 | 2.33 | 2.22 | 95 | 1011.3 |
| 20260502023334 | 59 | 51 | 0.9 | 2.6 | 0.04 | 2.32 | 2.21 | 95 | 1011.5 |
| 20260502022826 | 60 | 51 | 0.9 | 5.2 | 0.04 | 2.32 | 2.21 | 95 | 1011.5 |
| 20260502022310 | 60 | 51 | 0.9 | 5.2 | 0.04 | 2.32 | 2.21 | 95 | 1011.7 |
| 20260502021804 | 60 | 5 | 0.9 | 3.5 | 0.04 | 2.32 | 2.21 | 95 | 1011.6 |
| 20260502021258 | 60 | 5 | 0.9 | 3.5 | 0.05 | 2.32 | 2.21 | 95 | 1011.7 |
| 20260502020736 | 60 | 5 | 0.9 | 2.6 | 0.05 | 2.31 | 2.20 | 95 | 1011.7 |
| 20260502020236 | 60 | 5 | 0.9 | 3.5 | 0.06 | 2.31 | 2.20 | 95 | 1011.8 |
| 20260502015718 | 60 | 5 | 1.7 | 4.3 | 0.06 | 2.31 | 2.20 | 95 | 1011.8 |
| 20260502015216 | 60 | 30 | 1.7 | 4.3 | 0.06 | 2.31 | 2.20 | 95 | 1011.7 |
| 20260502014714 | 60 | 31 | 0.9 | 4.3 | 0.05 | 2.30 | 2.19 | 95 | 1011.5 |
| 20260502014212 | 60 | 32 | 0.9 | 4.3 | 0.04 | 2.29 | 2.18 | 95 | 1011.3 |
| 20260502013714 | 60 | 32 | 0.9 | 3.5 | 0.03 | 2.29 | 2.17 | 95 | 1011.5 |
| 20260502013207 | 60 | 36 | 0.9 | 3.5 | 0.04 | 2.29 | 2.17 | 95 | 1011.2 |
| 20260502012704 | 60 | 36 | 0.9 | 3.5 | 0.04 | 2.31 | 2.17 | 95 | 1010.9 |
| 20260502012156 | 60 | 36 | 0.9 | 3.5 | 0.06 | 2.35 | 2.17 | 95 | 1010.7 |
| 20260502011650 | 60 | 42 | 0.9 | 3.5 | 0.08 | 2.43 | 2.17 | 95 | 1010.6 |
| 20260502011145 | 60 | 43 | 1.7 | 4.3 | 0.10 | 2.59 | 2.16 | 95 | 1010.5 |
| 20260502010646 | 60 | 44 | 1.7 | 4.3 | 0.12 | 2.60 | 2.15 | 95 | 1010.5 |
| 20260502010147 | 60 | 0 | 1.7 | 6.1 | 0.14 | 2.60 | 2.14 | 95 | 1010.4 |
| 20260502005905 | 60 | 344 | 1.7 | 6.1 | 0.17 | 2.60 | 2.14 | 95 | 1010.3 |
| 20260502005144 | 60 | 23 | 1.7 | 5.2 | 0.18 | 2.60 | 2.14 | 95 | 1010.2 |
| 20260502004906 | 60 | 26 | 0.9 | 4.3 | 0.19 | 2.60 | 2.14 | 95 | 1009.7 |
| 20260502004140 | 60 | 24 | 0.9 | 5.2 | 0.19 | 2.60 | 2.14 | 95 | 1009.2 |
| 20260502003636 | 60 | 24 | 1.7 | 5.2 | 0.20 | 2.60 | 2.14 | 95 | 1009.2 |
| 20260502003357 | 60 | 60 | 1.7 | 5.2 | 0.22 | 2.59 | 2.13 | 95 | 1009.2 |
| 20260502002849 | 60 | 81 | 0.9 | 6.1 | 0.25 | 2.59 | 2.13 | 95 | 1011.7 |
| 20260502002338 | 60 | 81 | 1.7 | 6.1 | 0.23 | 2.57 | 2.11 | 95 | 1011.8 |
| 20260502001839 | 61 | 63 | 1.7 | 6.1 | 0.21 | 2.55 | 2.09 | 95 | 1009.3 |
| 20260502001112 | 61 | 52 | 1.7 | 6.1 | 0.18 | 2.52 | 2.07 | 95 | 1009.7 |
| 20260502000610 | 61 | 5 | 1.7 | 5.2 | 0.17 | 2.49 | 2.03 | 95 | 1009.5 |
| 20260502000105 | 61 | 351 | 0.9 | 5.2 | 0.13 | 2.45 | 2.00 | 95 | 1009.6 |
| 20260501235605 | 61 | 80 | 0.9 | 3.5 | 0.11 | 2.43 | 1.97 | 95 | 1009.5 |
| 20260501235100 | 61 | 80 | 1.7 | 6.1 | 0.10 | 2.42 | 1.96 | 95 | 1008.9 |
| 20260501234555 | 61 | 80 | 1.7 | 6.1 | 0.09 | 2.41 | 1.95 | 95 | 1008.7 |
| 20260501234056 | 61 | 82 | 1.7 | 8.7 | 0.08 | 2.40 | 1.95 | 95 | 1008.9 |
| 20260501233556 | 61 | 84 | 1.7 | 8.7 | 0.07 | 2.39 | 1.94 | 95 | 1008.1 |
| 20260501233051 | 61 | 86 | 1.7 | 8.7 | 0.05 | 2.37 | 1.91 | 95 | 1008.1 |
| 20260501232550 | 61 | 74 | 2.6 | 8.7 | 0.02 | 2.34 | 1.88 | 95 | 1008.7 |
| 20260501232052 | 61 | 295 | 2.6 | 6.1 | 0.02 | 2.34 | 1.88 | 95 | 1008.4 |
| 20260501231552 | 61 | 68 | 2.6 | 4.3 | 0.02 | 2.34 | 1.88 | 95 | 1008.2 |
| 20260501231052 | 62 | 0.0 | 0.0 | 0.02 | 2.34 | 1.88 | 95 | 1007.8 | |
| 20260501230553 | 0 | 0.0 | 0.0 | 0.00 | 2.32 | 1.86 | 1010.6 | ||
| 20260501230052 | 62 | 0.0 | 0.0 | 0.00 | 2.32 | 1.86 | 95 | 1010.9 | |
| 20260501225552 | 62 | 78 | 0.0 | 0.0 | 0.00 | 2.32 | 1.86 | 95 | 1010.4 |
| 20260501225050 | 62 | 78 | 0.0 | 2.6 | 0.00 | 2.32 | 1.86 | 95 | 1008.0 |
| 20260501224530 | 62 | 78 | 0.0 | 3.5 | 0.00 | 2.32 | 1.86 | 95 | 1008.5 |
| 20260501224015 | 62 | 78 | 0.9 | 4.3 | 0.00 | 2.32 | 1.86 | 95 | 1008.5 |
| 20260501223947 | 62 | 78 | 0.9 | 7.0 | 0.00 | 2.32 | 1.86 | 95 | 1008.5 |
| 20260501223004 | 63 | 72 | 1.7 | 7.0 | 0.00 | 2.32 | 1.86 | 95 | 1008.2 |
| 20260501222457 | 63 | 84 | 0.9 | 5.2 | 0.01 | 2.32 | 1.86 | 95 | 1008.3 |
| 20260501221952 | 63 | 84 | 0.9 | 5.2 | 0.01 | 2.32 | 1.86 | 95 | 1008.3 |
| 20260501221446 | 63 | 296 | 0.9 | 6.1 | 0.04 | 2.32 | 1.86 | 95 | 1008.3 |
| 20260501220940 | 63 | 286 | 0.9 | 7.0 | 0.10 | 2.32 | 1.86 | 95 | 1008.4 |
| 20260501220434 | 63 | 59 | 0.9 | 7.0 | 0.14 | 2.32 | 1.86 | 96 | 1008.6 |
| 20260501215928 | 63 | 64 | 0.9 | 4.3 | 0.18 | 2.32 | 1.86 | 96 | 1008.4 |
| 20260501215422 | 63 | 38 | 0.9 | 5.2 | 0.33 | 2.32 | 1.86 | 96 | 1008.4 |
| 20260501214916 | 63 | 33 | 0.9 | 5.2 | 0.38 | 2.32 | 1.86 | 96 | 1008.7 |
| 20260501214408 | 63 | 34 | 0.9 | 4.3 | 0.39 | 2.32 | 1.86 | 95 | 1009.0 |
| 20260501213902 | 63 | 36 | 0.9 | 4.3 | 0.41 | 2.32 | 1.86 | 95 | 1008.8 |
| 20260501213356 | 64 | 72 | 0.9 | 3.5 | 0.41 | 2.32 | 1.86 | 95 | 1008.7 |
| 20260501212852 | 64 | 77 | 0.9 | 3.5 | 0.42 | 2.32 | 1.86 | 96 | 1008.5 |
| 20260501212352 | 64 | 77 | 0.9 | 2.6 | 0.41 | 2.31 | 1.85 | 96 | 1008.2 |
| 20260501211852 | 64 | 77 | 0.9 | 5.2 | 0.41 | 2.30 | 1.85 | 96 | 1007.9 |
| 20260501211332 | 64 | 77 | 0.9 | 5.2 | 0.39 | 2.27 | 1.81 | 96 | 1007.7 |
| 20260501210826 | 64 | 73 | 0.9 | 4.3 | 0.33 | 2.21 | 1.76 | 96 | 1007.7 |
| 20260501210311 | 64 | 91 | 1.7 | 9.6 | 0.30 | 2.18 | 1.72 | 96 | 1008.2 |
| 20260501205812 | 64 | 94 | 1.7 | 9.6 | 0.26 | 2.13 | 1.67 | 95 | 1007.7 |
| 20260501205306 | 64 | 67 | 0.9 | 4.3 | 0.08 | 1.95 | 1.51 | 95 | 1006.7 |
| 20260501204800 | 64 | 65 | 0.9 | 3.5 | 0.07 | 1.94 | 1.48 | 95 | 1008.5 |
| 20260501204254 | 64 | 66 | 1.7 | 6.1 | 0.06 | 1.92 | 1.46 | 95 | 1007.9 |
| 20260501203756 | 64 | 63 | 1.7 | 6.1 | 0.07 | 1.91 | 1.45 | 95 | 1007.4 |
| 20260501203740 | 64 | 53 | 1.7 | 4.3 | 0.10 | 1.90 | 1.45 | 96 | 1007.2 |
| 20260501202755 | 64 | 55 | 1.7 | 4.3 | 0.21 | 1.90 | 1.44 | 96 | 1006.9 |
| 20260501202254 | 64 | 78 | 0.9 | 3.5 | 0.20 | 1.89 | 1.43 | 96 | 1006.7 |
| 20260501202240 | 64 | 78 | 0.0 | 2.6 | 0.26 | 1.89 | 1.43 | 96 | 1007.4 |
| 20260501201256 | 64 | 78 | 0.9 | 4.3 | 0.28 | 1.88 | 1.42 | 96 | 1007.5 |
| 20260501200756 | 64 | 78 | 0.9 | 5.2 | 0.29 | 1.88 | 1.42 | 96 | 1006.9 |
| 20260501200520 | 64 | 78 | 1.7 | 5.2 | 0.30 | 1.88 | 1.42 | 96 | 1006.5 |
| 20260501195754 | 64 | 76 | 1.7 | 4.3 | 0.30 | 1.87 | 1.41 | 96 | 1006.5 |
| 20260501195257 | 64 | 75 | 0.9 | 4.3 | 0.31 | 1.87 | 1.41 | 96 | 1007.2 |
| 20260501194752 | 64 | 74 | 0.0 | 3.5 | 0.32 | 1.87 | 1.41 | 95 | 1007.4 |
| 20260501194253 | 64 | 74 | 0.0 | 1.7 | 0.31 | 1.86 | 1.40 | 95 | 1007.9 |
| 20260501193749 | 64 | 74 | 0.0 | 0.0 | 0.29 | 1.84 | 1.38 | 95 | 1009.8 |
| 20260501193248 | 64 | 73 | 0.0 | 0.0 | 0.25 | 1.80 | 1.34 | 95 | 1007.7 |
| 20260501192935 | 65 | 73 | 0.0 | 1.7 | 0.15 | 1.69 | 1.23 | 95 | 1009.4 |
| 20260501192210 | 65 | 73 | 0.0 | 3.5 | 0.12 | 1.64 | 1.23 | 95 | 1008.7 |
| 20260501191701 | 64 | 96 | 0.9 | 4.3 | 0.10 | 1.62 | 1.17 | 95 | 1006.4 |
| 20260501191415 | 65 | 98 | 2.6 | 7.8 | 0.08 | 1.60 | 1.14 | 95 | 1006.5 |
| 20260501190905 | 64 | 166 | 2.6 | 7.8 | 0.08 | 1.59 | 1.13 | 95 | 1006.5 |
| 20260501190142 | 64 | 112 | 2.6 | 6.1 | 0.09 | 1.58 | 1.12 | 95 | 1006.5 |
| 20260501185635 | 64 | 178 | 1.7 | 6.1 | 0.09 | 1.57 | 1.11 | 95 | 1006.6 |
| 20260501185130 | 64 | 159 | 1.7 | 7.0 | 0.09 | 1.56 | 1.10 | 95 | 1006.7 |
| 20260501184624 | 65 | 317 | 2.6 | 7.0 | 0.08 | 1.55 | 1.09 | 95 | 1008.1 |
| 20260501184118 | 65 | 319 | 1.7 | 7.0 | 0.08 | 1.55 | 1.09 | 95 | 1008.6 |
| 20260501183612 | 65 | 107 | 1.7 | 5.2 | 0.08 | 1.55 | 1.09 | 95 | 1007.8 |
| 20260501183106 | 65 | 108 | 2.6 | 5.2 | 0.09 | 1.55 | 1.09 | 95 | 1007.2 |
| 20260501182600 | 64 | 128 | 1.7 | 5.2 | 0.08 | 1.54 | 1.08 | 95 | 1007.0 |
| 20260501182057 | 64 | 77 | 0.9 | 2.6 | 0.07 | 1.52 | 1.06 | 95 | 1010.1 |
| 20260501181554 | 64 | 77 | 0.9 | 2.6 | 0.12 | 1.52 | 1.06 | 95 | 1010.5 |
| 20260501181051 | 64 | 77 | 0.9 | 2.6 | 0.14 | 1.52 | 1.06 | 95 | 1008.3 |
| 20260501180552 | 64 | 77 | 0.9 | 4.3 | 0.13 | 1.51 | 1.05 | 95 | 1008.2 |
| 20260501180052 | 64 | 78 | 0.9 | 4.3 | 0.11 | 1.49 | 1.03 | 95 | 1008.3 |
| 20260501175548 | 64 | 78 | 0.9 | 3.5 | 0.10 | 1.48 | 1.02 | 95 | 1008.3 |
| 20260501175043 | 64 | 78 | 0.9 | 4.3 | 0.10 | 1.47 | 1.01 | 95 | 1008.2 |
| 20260501174544 | 64 | 79 | 0.9 | 7.0 | 0.11 | 1.47 | 1.01 | 95 | 1008.3 |
| 20260501174038 | 64 | 98 | 0.9 | 7.0 | 0.17 | 1.47 | 1.01 | 95 | 1008.1 |
| 20260501173804 | 64 | 62 | 0.9 | 4.3 | 0.22 | 1.47 | 1.01 | 95 | 1007.8 |
| 20260501173031 | 64 | 61 | 1.7 | 4.3 | 0.47 | 1.46 | 1.00 | 95 | 1007.9 |
| 20260501172526 | 64 | 47 | 0.9 | 3.5 | 0.58 | 1.46 | 1.00 | 95 | 1007.8 |
| 20260501172020 | 64 | 51 | 1.7 | 4.3 | 0.59 | 1.44 | 0.99 | 95 | 1008.0 |
| 20260501171517 | 64 | 46 | 1.7 | 4.3 | 0.55 | 1.40 | 0.95 | 95 | 1008.3 |
| 20260501171017 | 64 | 317 | 1.7 | 5.2 | 0.53 | 1.38 | 0.92 | 95 | 1008.7 |
| 20260501170514 | 65 | 311 | 1.7 | 6.1 | 0.53 | 1.38 | 0.92 | 95 | 1008.5 |
| 20260501170012 | 65 | 66 | 0.9 | 6.1 | 0.53 | 1.38 | 0.92 | 95 | 1008.5 |
| 20260501165512 | 65 | 50 | 0.9 | 4.3 | 0.53 | 1.38 | 0.92 | 95 | 1008.5 |
| 20260501164956 | 65 | 56 | 0.9 | 4.3 | 0.52 | 1.37 | 0.91 | 95 | 1008.4 |
| 20260501164457 | 65 | 40 | 0.9 | 3.5 | 0.50 | 1.35 | 0.90 | 95 | 1008.3 |
| 20260501163959 | 64 | 40 | 0.9 | 7.8 | 0.44 | 1.29 | 0.84 | 94 | 1009.2 |
| 20260501163458 | 65 | 42 | 0.9 | 7.8 | 0.40 | 1.25 | 0.79 | 94 | 1010.0 |